Powrót do katalogu

STARLINK-34531

AktywnyŁącznośćVLEO
NORAD 64750·PAYLOAD·🇺🇸 United States

Wystrzelony Jul 2, 2025 z Cape Canaveral Space Force Station

Loading…

Następne Przeloty (najbliższe 24 godziny)

TLE

ŚwieżeSource: CelesTrak SupGP

Epoka: Sep 14, 2026, 22:58 UTC

1 64750C 25144AC  26257.95743056 -.00004583  00000+0 -13544-3 0  2577
2 64750  53.1606  19.3371 0001183  84.6798 356.8433 15.34384441    14

Śledź STARLINK-34531 w czasie rzeczywistym z AllMySat

Download on the App Store